| time (UTC) | temp F | wind direction | speed MPH | gust MPH | rain 1hr in | rain 24hr in | rain mn in | humidity % | barometer mb |
| 20260903223057 | 70 | 46 | 0.0 | 5.0 | 0.00 | 0.11 | 0.01 | 33 | 1012.2 |
| 20260903221553 | 70 | 266 | 0.0 | 4.0 | 0.00 | 0.11 | 0.01 | 34 | 1012.2 |
| 20260903220052 | 69 | 128 | 1.0 | 9.0 | 0.00 | 0.11 | 0.01 | 32 | 1012.5 |
| 20260903214605 | 70 | 79 | 0.0 | 6.0 | 0.00 | 0.15 | 0.01 | 32 | 1012.6 |
| 20260903213050 | 70 | 226 | 0.0 | 9.0 | 0.00 | 0.15 | 0.01 | 34 | 1012.7 |
| 20260903211550 | 71 | 291 | 1.0 | 3.0 | 0.00 | 0.15 | 0.01 | 33 | 1012.7 |
| 20260903210046 | 70 | 237 | 1.0 | 6.0 | 0.00 | 0.15 | 0.01 | 31 | 1013.1 |
| 20260903204543 | 70 | 148 | 0.0 | 6.0 | 0.00 | 0.15 | 0.01 | 35 | 1013.1 |
| 20260903203040 | 69 | 274 | 0.0 | 5.0 | 0.00 | 0.15 | 0.01 | 34 | 1013.4 |
| 20260903201544 | 68 | 72 | 0.0 | 7.0 | 0.00 | 0.15 | 0.01 | 34 | 1013.5 |
| 20260903200038 | 68 | 63 | 1.0 | 6.0 | 0.00 | 0.15 | 0.01 | 36 | 1013.7 |
| 20260903194537 | 69 | 121 | 0.0 | 6.0 | 0.00 | 0.15 | 0.01 | 38 | 1013.6 |
| 20260903193034 | 69 | 106 | 0.0 | 5.0 | 0.00 | 0.15 | 0.01 | 33 | 1013.7 |
| 20260903191534 | 67 | 200 | 0.0 | 10.0 | 0.00 | 0.15 | 0.01 | 37 | 1013.9 |
| 20260903190031 | 68 | 221 | 0.0 | 9.0 | 0.00 | 0.15 | 0.01 | 39 | 1013.9 |
| 20260903184529 | 68 | 72 | 2.0 | 5.0 | 0.00 | 0.15 | 0.01 | 34 | 1014.1 |
| 20260903183027 | 67 | 141 | 0.0 | 3.0 | 0.00 | 0.15 | 0.01 | 41 | 1014.2 |
| 20260903181524 | 66 | 129 | 0.0 | 3.0 | 0.00 | 0.15 | 0.01 | 40 | 1014.4 |
| 20260903180031 | 65 | 156 | 1.0 | 4.0 | 0.00 | 0.15 | 0.01 | 40 | 1014.6 |
| 20260903174518 | 64 | 271 | 0.0 | 5.0 | 0.00 | 0.15 | 0.01 | 46 | 1014.8 |
| 20260903173015 | 63 | 247 | 0.0 | 7.0 | 0.00 | 0.15 | 0.01 | 45 | 1014.8 |
| 20260903171514 | 63 | 81 | 0.0 | 5.0 | 0.00 | 0.15 | 0.01 | 49 | 1014.8 |
| 20260903170011 | 62 | 125 | 0.0 | 5.0 | 0.00 | 0.15 | 0.01 | 50 | 1014.7 |
| 20260903164508 | 61 | 95 | 0.0 | 4.0 | 0.00 | 0.16 | 0.01 | 52 | 1014.9 |
| 20260903163005 | 61 | 84 | 0.0 | 4.0 | 0.00 | 0.16 | 0.01 | 53 | 1015.0 |
| 20260903161504 | 60 | 162 | 0.0 | 3.0 | 0.00 | 0.16 | 0.01 | 62 | 1015.2 |
| 20260903160059 | 58 | 141 | 1.0 | 5.0 | 0.00 | 0.16 | 0.01 | 59 | 1015.2 |
| 20260903154559 | 55 | 125 | 0.0 | 3.0 | 0.00 | 0.16 | 0.01 | 72 | 1015.2 |
| 20260903153105 | 52 | 125 | 0.0 | 3.0 | 0.00 | 0.16 | 0.01 | 87 | 1015.3 |
| 20260903151545 | 48 | 60 | 0.0 | 1.0 | 0.00 | 0.16 | 0.01 | 97 | 1015.5 |
| 20260903150051 | 46 | 259 | 0.0 | 0.0 | 0.00 | 0.16 | 0.01 | 97 | 1015.7 |
| 20260903144543 | 43 | 258 | 0.0 | 0.0 | 0.00 | 0.16 | 0.01 | 97 | 1015.7 |
| 20260903143053 | 42 | 259 | 0.0 | 0.0 | 0.00 | 0.16 | 0.01 | 97 | 1015.7 |
| 20260903141542 | 42 | 259 | 0.0 | 0.0 | 0.00 | 0.16 | 0.01 | 97 | 1015.6 |
| 20260903140037 | 42 | 259 | 0.0 | 0.0 | 0.00 | 0.16 | 0.01 | 97 | 1015.6 |
| 20260903134536 | 42 | 258 | 0.0 | 0.0 | 0.00 | 0.16 | 0.01 | 97 | 1015.5 |
| 20260903133035 | 42 | 258 | 0.0 | 0.0 | 0.00 | 0.16 | 0.01 | 97 | 1015.5 |
| 20260903131534 | 42 | 258 | 0.0 | 0.0 | 0.00 | 0.16 | 0.01 | 97 | 1015.4 |
| 20260903130032 | 42 | 259 | 0.0 | 0.0 | 0.00 | 0.16 | 0.01 | 97 | 1015.1 |
| 20260903124533 | 43 | 259 | 0.0 | 0.0 | 0.01 | 0.16 | 0.01 | 97 | 1014.9 |
| 20260903123030 | 43 | 259 | 0.0 | 0.0 | 0.01 | 0.16 | 0.01 | 97 | 1014.7 |
| 20260903121528 | 44 | 259 | 0.0 | 0.0 | 0.01 | 0.16 | 0.01 | 97 | 1014.6 |
| 20260903120033 | 44 | 259 | 0.0 | 0.0 | 0.01 | 0.16 | 0.01 | 97 | 1014.7 |
| 20260903114531 | 44 | 258 | 0.0 | 0.0 | 0.00 | 0.15 | 0.00 | 97 | 1014.6 |
| 20260903113030 | 44 | 259 | 0.0 | 0.0 | 0.00 | 0.15 | 0.00 | 97 | 1014.4 |
| 20260903111532 | 44 | 259 | 0.0 | 0.0 | 0.00 | 0.15 | 0.00 | 97 | 1014.4 |
| 20260903110025 | 45 | 259 | 0.0 | 0.0 | 0.00 | 0.15 | 0.00 | 97 | 1014.5 |
| 20260903104525 | 45 | 258 | 0.0 | 0.0 | 0.00 | 0.15 | 0.00 | 97 | 1014.6 |
| 20260903103023 | 45 | 259 | 0.0 | 0.0 | 0.00 | 0.15 | 0.00 | 97 | 1014.6 |
| 20260903101526 | 45 | 259 | 0.0 | 0.0 | 0.00 | 0.15 | 0.00 | 97 | 1014.8 |
| 20260903100022 | 45 | 258 | 0.0 | 0.0 | 0.00 | 0.15 | 0.00 | 97 | 1015.0 |
| 20260903094520 | 44 | 259 | 0.0 | 0.0 | 0.00 | 0.17 | 0.00 | 97 | 1014.9 |
| 20260903093024 | 44 | 259 | 0.0 | 0.0 | 0.00 | 0.17 | 0.00 | 97 | 1014.9 |
| 20260903091524 | 44 | 259 | 0.0 | 0.0 | 0.00 | 0.17 | 0.00 | 97 | 1014.9 |
| 20260903090023 | 43 | 259 | 0.0 | 0.0 | 0.00 | 0.17 | 0.00 | 97 | 1014.9 |
| 20260903084536 | 43 | 259 | 0.0 | 0.0 | 0.00 | 0.17 | 0.00 | 96 | 1014.8 |
| 20260903083013 | 43 | 258 | 0.0 | 0.0 | 0.00 | 0.17 | 0.00 | 97 | 1014.8 |
| 20260903081512 | 43 | 258 | 0.0 | 0.0 | 0.00 | 0.17 | 0.00 | 96 | 1015.0 |
| 20260903080011 | 43 | 259 | 0.0 | 0.0 | 0.00 | 0.17 | 0.00 | 96 | 1015.0 |
| 20260903074510 | 43 | 258 | 0.0 | 0.0 | 0.00 | 0.17 | 0.00 | 96 | 1015.1 |
| 20260903073008 | 43 | 259 | 0.0 | 0.0 | 0.00 | 0.17 | 0.00 | 96 | 1015.1 |
| 20260903071508 | 43 | 259 | 0.0 | 0.0 | 0.00 | 0.17 | 0.00 | 96 | 1015.2 |
| 20260903070016 | 43 | 259 | 0.0 | 0.0 | 0.00 | 0.17 | 0.00 | 96 | 1015.3 |
| 20260903064506 | 43 | 259 | 0.0 | 0.0 | 0.00 | 0.17 | 0.00 | 96 | 1015.1 |
| 20260903063005 | 44 | 259 | 0.0 | 0.0 | 0.00 | 0.17 | 0.00 | 96 | 1015.2 |
| 20260903061512 | 43 | 259 | 0.0 | 0.0 | 0.00 | 0.17 | 0.00 | 96 | 1015.0 |
| 20260903060002 | 43 | 259 | 0.0 | 0.0 | 0.00 | 0.17 | 0.17 | 96 | 1015.1 |
| 20260903054505 | 43 | 259 | 0.0 | 0.0 | 0.00 | 0.17 | 0.17 | 96 | 1015.1 |
| 20260903053102 | 43 | 258 | 0.0 | 0.0 | 0.00 | 0.17 | 0.17 | 96 | 1015.1 |
| 20260903051600 | 43 | 259 | 0.0 | 0.0 | 0.00 | 0.17 | 0.17 | 96 | 1015.2 |
| 20260903050100 | 43 | 259 | 0.0 | 0.0 | 0.00 | 0.17 | 0.17 | 95 | 1015.3 |
| 20260903044559 | 44 | 259 | 0.0 | 0.0 | 0.00 | 0.17 | 0.17 | 95 | 1015.4 |
| 20260903043058 | 44 | 259 | 0.0 | 0.0 | 0.00 | 0.17 | 0.17 | 95 | 1015.3 |
| 20260903041559 | 44 | 259 | 0.0 | 0.0 | 0.00 | 0.17 | 0.17 | 95 | 1015.2 |
| 20260903040059 | 45 | 259 | 0.0 | 0.0 | 0.00 | 0.17 | 0.17 | 95 | 1015.2 |
| 20260903034558 | 45 | 258 | 0.0 | 0.0 | 0.00 | 0.17 | 0.17 | 95 | 1015.2 |
| 20260903033101 | 45 | 259 | 0.0 | 1.0 | 0.00 | 0.17 | 0.17 | 95 | 1015.1 |
| 20260903031557 | 45 | 259 | 0.0 | 0.0 | 0.00 | 0.17 | 0.17 | 95 | 1015.0 |
| 20260903030119 | 46 | 258 | 0.0 | 0.0 | 0.00 | 0.17 | 0.17 | 94 | 1014.8 |
| 20260903024556 | 46 | 259 | 0.0 | 0.0 | 0.00 | 0.17 | 0.17 | 94 | 1014.8 |
| 20260903023055 | 47 | 259 | 0.0 | 0.0 | 0.00 | 0.17 | 0.17 | 94 | 1014.5 |
| 20260903021555 | 47 | 259 | 0.0 | 0.0 | 0.00 | 0.17 | 0.17 | 94 | 1014.3 |
| 20260903020104 | 47 | 259 | 0.0 | 0.0 | 0.00 | 0.17 | 0.17 | 93 | 1013.9 |
| 20260903014554 | 48 | 259 | 0.0 | 0.0 | 0.00 | 0.17 | 0.17 | 92 | 1013.9 |
| 20260903013053 | 48 | 259 | 0.0 | 0.0 | 0.00 | 0.17 | 0.17 | 92 | 1013.9 |
| 20260903011553 | 49 | 259 | 0.0 | 0.0 | 0.00 | 0.17 | 0.17 | 90 | 1013.7 |
| 20260903010052 | 50 | 200 | 0.0 | 0.0 | 0.01 | 0.17 | 0.17 | 90 | 1013.6 |
| 20260903004552 | 51 | 200 | 0.0 | 0.0 | 0.04 | 0.17 | 0.17 | 89 | 1013.8 |
| 20260903003051 | 52 | 207 | 0.0 | 1.0 | 0.08 | 0.17 | 0.17 | 87 | 1014.0 |
| 20260903001604 | 53 | 265 | 0.0 | 1.0 | 0.10 | 0.17 | 0.17 | 85 | 1014.2 |
| 20260903000056 | 52 | 60 | 0.0 | 1.0 | 0.09 | 0.16 | 0.16 | 89 | 1014.8 |
| 20260902234549 | 53 | 167 | 0.0 | 1.0 | 0.06 | 0.13 | 0.13 | 86 | 1014.8 |
| 20260902233055 | 55 | 200 | 0.0 | 0.0 | 0.02 | 0.09 | 0.09 | 82 | 1013.5 |
| 20260902231553 | 57 | 200 | 0.0 | 0.0 | 0.00 | 0.07 | 0.07 | 72 | 1013.3 |
| 20260902230049 | 57 | 123 | 0.0 | 0.0 | 0.00 | 0.07 | 0.07 | 70 | 1012.9 |
| 20260902224548 | 57 | 123 | 0.0 | 0.0 | 0.02 | 0.07 | 0.07 | 74 | 1013.0 |